Location: Alt?nova Orta
(36.9295°N, 30.7847°E)
Time: 20:49:42
(UTC+00:00)

Cosmos 2237 Rocket - Pass Details

Date: 17 February 2020
Orbit: 835 x 849 km, 71.0° (Epoch: 07 April)

Event Time Altitude Azimuth Distance (km) Brightness Sun altitude
Exits shadow 02:21:38 13° 353° (N) 2,246 4.4 -29.1°
Drops below altitude 10° 02:22:20 10° 358° (N) 2,452 4.6 -28.9°
Sets 02:25:12 0° 11° (N) 3,390 5.5 -28.3°
